DECAYED

FENGYUN 1C DEB, 30674 (Decayed)

Orbit data source: Space-Track

FENGYUN 1C DEB, 30674 was space debris in SSO originally from a launch on Mon, 10 May 1999 UTC launched from the Taiyaun Space Center, China (TSC). Fengyun 1C debris stems from the Chinese weather satellite Fengyun-1C, which was intentionally destroyed by a Chinese anti-satellite missile in 2007. This event dramatically increased the amount of space debris, with thousands of trackable fragments posing hazards to satellites and human spaceflight. The Fengyun 1C debris cloud has become a focal point in discussions about space sustainability and the need for international regulations to prevent the creation of new debris.

Not visible in the next 10 days
Identifier
30674, 1999-025AQG
Orbit
Decayed
Country
Flag of CNCN / PRC
Related business
Manufacturer
Unknown
Mission
Decayed spacecraft
Bus & Motor
Unknown
Mass
Unknown
Launch date (UTC)
1999-05-10 (27 years ago)
Launch vehicle
Unknown
Launch site
Taiyaun Space Center, China (TSC)
Object type
Payload
Rocket body
Debris
Shape & HBR
Unknown shape, 0.1 m
Radar Cross Section
Medium (>0.1 m² and <1 m²)

Expand to show TLE details & history
Last TLE update: 5 months ago

TLE from 5 months ago
0 FENGYUN 1C DEB
1 30674U 99025AQG 26102.46229465  .06485262  74822-1  18658-1 0  9990
2 30674  98.9040 291.9349 0019061 299.5693  60.3679 15.97929813991834
Epoch: 2026-04-12T11:05Z
TLE epoch observation values (Epoch: 2026-04-12T11:05:42.257Z)
Latitude
-0.00005°
Longitude
-75.15806°
Altitude
277.052 km
Speed
7.745 km/s
True Right ascension
19h 27m 44s
True Declination
0° 00' 00"
Sunlit
Object was in daylight at epoch
Visualization orbit readout
Latitude
Unknown
Longitude
Unknown
Altitude
Unknown
Speed
Unknown
Apparent Right ascension
Unknown
Apparent Declination
Unknown
Sunlit
N/A
Visualization observer readout
Local Sidereal Time
14:22:20
Azimuth
Unknown
Elevation
Unknown
Doppler factor
Unknown
Orbital elements
Apogee altitude
289.784 km
Perigee altitude
264.413 km
Semi-major axis
6,655.236 km
Eccentricity
0.00191
Inclination
98.904°
RAAN
291.9349°
Arg. of periapsis
299.5693°
True anomaly
60.55798°
Mean anomaly
60.3679°
Eccentric anomaly
60.46292°
Mean motion
3.99759 °/min
Orbital period
90.05 mins
BSTAR
0.018658
Loading maneuver chart data...
Computing Atmospheric mass density...
Loading historical data...
Loading historical data...
Loading historical data...
Loading historical data...
Loading historical data...
Loading historical data...
Loading historical data...

Documentation

Showing up to 5 results
|